Regional Weather Roundup
Issued by NWS Sterling, VA

Home | Current Version | Previous Version | Text Only | Print | Product List | Glossary Off
Versions: 1 2 3 4 5 6 7 8 9 10 11 12 13 14 15 16 17 18 19 20 21 22 23 24 25 26 27 28 29 30 31 32 33 34 35 36 37 38 39 40 41 42 43 44 45 46 47 48 49 50

000
ASUS41 KLWX 212211
RWRLWX

REGIONAL WEATHER ROUNDUP
NATIONAL WEATHER SERVICE BALTIMORE MD/WASHINGTON DC
600 PM EDT SAT APR 21 2018

Note: "FAIR" indicates few or no clouds below 12,000 feet
with no significant weather and/or obstructions to visibility.
 TC=TEMPERATURE CELSIUS

 * =Non NWS site. Station does not report precipitation (e.g. rain,
    snow, etc.), thunder, or fog.

DCZ001-MDZ009-015-VAZ040>042-051-053>054-212300-
WASHINGTON METRO

CITY           SKY/WX    TMP DP  RH WIND       PRES   REMARKS
WASHINGTON NAT PTSUNNY   60  32  34 S7        30.35S
DULLES         PTSUNNY   62  22  21 CALM      30.34S
ANDREWS AFB    FAIR      60  24  25 NW6       30.33S
FT BELVOIR     FAIR      60  28  29 S5        30.34S
QUANTICO       FAIR      60  32  34 CALM      30.35F
COLLEGE PARK*  FAIR      60  24  24 CALM      30.34R
LEESBURG*      FAIR      61  30  31 NE5       30.35R
MANASSAS*      FAIR      62  29  28 SW6       30.35R
GAITHERSBURG*  FAIR      59  25  27 NW6       30.34S

$$

MDZ006>007-011-014-212300-
BALTIMORE METRO

CITY           SKY/WX    TMP DP  RH WIND       PRES   REMARKS
BWI AIRPORT    PTSUNNY   60  28  29 W6        30.33S
MD SCIENCE CTR   N/A     60  31  33 MISG      30.34S
MARTIN STATE   PTSUNNY   57  37  47 SE9       30.36S
ANNAPOLIS      FAIR      56  37  49 SE9       30.35S
FORT MEADE*    FAIR      59  25  27 CALM      30.36S

$$

MDZ012-015-019>023-212300-
MARYLAND EASTERN SHORE

CITY           SKY/WX    TMP DP  RH WIND       PRES   REMARKS
OCEAN CITY     FAIR      49  36  61 S8        30.38S
SALISBURY      FAIR      58  27  30 W6        30.35S
BAY BRIDGE AP* FAIR      57  30  35 S5        30.35S
CAMBRIDGE*     SUNNY     57  28  33 CALM      30.36S
EASTON*        MOSUNNY   59  27  29 NW7       30.39S

$$

MDZ017>025-212300-
SOUTHERN MARYLAND

CITY           SKY/WX    TMP DP  RH WIND       PRES   REMARKS
PATUXENT RIVER FAIR      54  37  52 SE15      30.35F
ST INIGOES     FAIR      56  35  45 SE9       30.35F
LEONARDTOWN*   FAIR      59  30  33 SW7       30.36F

$$

MDZ003>005-212300-
NORTH CENTRAL MARYLAND

CITY           SKY/WX    TMP DP  RH WIND       PRES   REMARKS
FREDERICK*     SUNNY     61  18  18 CALM      30.36S
HAGERSTOWN APT FAIR      59  23  25 SW5       30.32F
WESTMINSTER*   FAIR      61  28  29 CALM      30.32F

$$

MDZ501>502-212300-
WESTERN MARYLAND

CITY           SKY/WX    TMP DP  RH WIND       PRES   REMARKS
OAKLAND*       FAIR      50  16  25 N6        30.31S
CUMBERLAND*    FAIR      63  23  22 CALM      30.35S

$$

VAZ025>031-212300-
SHENANDOAH VALLEY

CITY           SKY/WX    TMP DP  RH WIND       PRES   REMARKS
WINCHESTER*    FAIR      57  27  30 E6        30.34S
FRONT ROYAL*   FAIR      61  27  27 NE5       30.31S
LURAY*         FAIR      64  23  20 NE3       30.31R
NEW MARKET*    FAIR      63  19  17 CALM      30.29S
STAUNTON*      FAIR      61  30  31 E5        30.32S
WAYNESBORO*    FAIR      63  29  28 SE7       30.31S

$$

WVZ021-048>050-054>055-212300-
EASTERN WEST VIRGINIA PANHANDLE

CITY           SKY/WX    TMP DP  RH WIND       PRES   REMARKS
MARTINSBURG    FAIR      59  24  26 E3        30.32S
PETERSBURG*    FAIR      65  27  23 E7        30.29S

$$

VAZ036>039-050-212300-
CENTRAL FOOTHILLS

CITY           SKY/WX    TMP DP  RH WIND       PRES   REMARKS
CHARLOTTESVILL FAIR      67  28  23 VRB3      30.32R
CULPEPER*      FAIR      62  26  25 CALM      30.35R
ORANGE*        FAIR      61  32  33 CALM      30.33R
GORDONSVILLE*  FAIR      64  29  26 CALM      30.33R
WARRENTON*     FAIR      62  20  19 CALM      30.34R

$$

VAZ055>057-212300-
NORTH AND CENTRAL PIEDMONT

CITY           SKY/WX    TMP DP  RH WIND       PRES   REMARKS
FREDERICKSBRG* FAIR      64  28  25 NW3       30.33S
STAFFORD*      FAIR      64  27  24 N3        30.37R

$$

NCZ024-NYZ072-PAZ021-071-VAZ022-071-212300-
OTHER REGIONAL OBSERVATIONS

CITY           SKY/WX    TMP DP  RH WIND       PRES   REMARKS
NEW YORK CITY  FAIR      61  17  18 NW6       30.28S
PHILADELPHIA   CLOUDY    59  25  27 W12       30.32S
PITTSBURGH     PTSUNNY   56  18  22 VRB3      30.35R
ROANOKE        FAIR      64  31  28 SE9       30.32S
RICHMOND       FAIR      65  27  23 CALM      30.34S
RALEIGH        FAIR      68  34  28 SE5       30.33S

$$

ANZ530>537-212300-
MARINE OBSERVATIONS

STATION/POSITION TIME  TEMP    WIND        PRES
                       AIR SEA DIR/SP/G
                 (UTC) (F)     (DEG/KT/KT) (MB)
THOMAS PT LIGHT  2200   52 51  180/  6/  7 1028.9R
BALT KEY BRIDGE  2148   56     140/  9/ 10 1027.3F
COVE POINT       2148   51     170/ 11/ 12 1028.6F
LEWISETTA        2148   53 55  130/  9/ 10 1028.1F
SOLOMONS ISLAND  2148   52 53  120/ 13/ 14 1027.5F
PINEY POINT      2136          160/ 10/ 12   N/A

$$




USA.gov is the U.S. government's official web portal to all federal, state and local government web resources and services.